Flag for U.S.A. Weather past 2 weeks in Tacoma, Washington, U.S.A.

Now
88 °F

Sunny.


Feels Like: 86 °F
Forecast: 60 / 89 °F
Wind: 3 mph from North

Location: Tacoma Narrows Airport

Current Time: Jul 3, 2015 at 6:59:40 PM

Latest Report: Jul 3, 2015 at 5:53 PM


Visibility: 10 mi

Pressure: 29.83 "Hg

Humidity: 31%

Dew point: 54 °F

Location of TacomaLocation

Historic Weather in Tacoma — Graph

°F

Tacoma temperature yesterday

Maximum temperature yesterday: 89 °F (at 3:53 PM)
Minimum temperature yesterday: 63 °F (at 5:53 AM)
Average temperature yesterday: 77 °F

Past Weeks' High & Low Weather Summary

 TemperatureHumidityPressure
High89 °F (Jul 2, 3:53 PM)90% (Jun 30, 1:53 AM)30.17 "Hg (Jun 30, 1:53 AM)
Low51 °F (Jun 20, 5:53 AM)23% (Jun 23, 4:53 PM)29.85 "Hg (Jul 3, 4:53 PM)
Average69 °F57%30.03 "Hg
* Reported Jun 18 4:53 PM — Jul 3 4:53 PM, Tacoma, Weather by CustomWeather, © 2015

Note: Actual official high and low records may vary slightly from our data, if they occured in-between our weather recording intervals... More about our weather records

Advertising

Tacoma weather history for previous 24 hours

 ConditionsComfort  
Time TempWeatherWind HumidityBarometerVisibility
4:53 PM
Fri, Jul 3
88 °FSunny.5 mph31%29.85 "Hg10 mi
3:53 PM86 °FSunny.5 mph33%29.87 "Hg10 mi
2:53 PM86 °FSunny.3 mph33%29.89 "Hg10 mi
1:53 PM85 °FSunny.6 mph34%29.91 "Hg10 mi
12:53 PM84 °FSunny.5 mph35%29.93 "Hg10 mi
11:53 AM82 °FSunny.10 mph35%29.94 "Hg10 mi
10:53 AM79 °FSunny.8 mph41%29.94 "Hg10 mi
9:53 AM72 °FSunny.No wind57%29.95 "Hg10 mi
8:53 AM69 °FSunny.3 mph63%29.97 "Hg10 mi
7:53 AM63 °FSunny.5 mph75%29.97 "Hg10 mi
6:53 AM64 °FSunny.3 mph75%29.97 "Hg10 mi
5:53 AM61 °FClear.No wind83%29.95 "Hg10 mi
4:53 AM63 °FClear.No wind78%29.95 "Hg10 mi
3:53 AM65 °FClear.No wind76%29.94 "Hg10 mi
2:53 AM67 °FClear.No wind71%29.94 "Hg10 mi
1:53 AM70 °FClear.No wind59%29.93 "Hg10 mi
12:53 AM72 °FClear.No wind49%29.93 "Hg10 mi
11:53 PM
Thu, Jul 2
75 °FClear.No wind43%29.93 "Hg10 mi
10:53 PM76 °FClear.3 mph43%29.93 "Hg10 mi
9:53 PM82 °FSunny.12 mph34%29.92 "Hg10 mi
8:53 PM82 °FSunny.3 mph38%29.92 "Hg10 mi
7:53 PM86 °FSunny.9 mph32%29.92 "Hg10 mi
6:53 PM87 °FSunny.10 mph31%29.92 "Hg10 mi
Weather by CustomWeather, © 2015

See weather overviewHow to use our weather pages